• In Belarus
  • List of Countries
  • For 7 days
  • Water Temperature
  • Satellite Maps
  • Weather Map
  • Weather Widgets
  • user-avatar
    Login

    Hourly Weather Uzwil

    Today, 23 October, Monday

    Time Temperature Precipitation Wind Pressure Humidity
    00:00 +4°C° 0.4 mm 3 mps 711 mmHg 94%
    01:00 +4°C° 0.4 mm 3 mps 711 mmHg 94%
    02:00 +4°C° 0.5 mm 3 mps 711 mmHg 94%
    03:00 +4°C° 0.5 mm 3 mps 711 mmHg 94%
    04:00 +4°C° 0.5 mm 3 mps 711 mmHg 95%
    05:00 +4°C° 0.6 mm 3 mps 711 mmHg 94%
    06:00 +4°C° 0.6 mm 3 mps 711 mmHg 94%
    07:00 +4°C° 0.6 mm 3 mps 711 mmHg 94%
    08:00 +4°C° 0.5 mm 3 mps 711 mmHg 93%
    09:00 +5°C° 0.5 mm 3 mps 712 mmHg 92%
    10:00 +5°C° 0.5 mm 3 mps 712 mmHg 91%
    11:00 +7°C° 0.6 mm 3 mps 712 mmHg 90%
    12:00 +7°C° 0.6 mm 3 mps 712 mmHg 89%
    13:00 +8°C° 0.6 mm 3 mps 712 mmHg 88%
    14:00 +8°C° 0.5 mm 3 mps 712 mmHg 88%
    15:00 +8°C° 0.5 mm 3 mps 712 mmHg 89%
    16:00 +8°C° 0.5 mm 3 mps 713 mmHg 89%
    17:00 +7°C° 0.4 mm 3 mps 713 mmHg 91%
    18:00 +7°C° 0.4 mm 3 mps 713 mmHg 92%
    19:00 +7°C° 0.4 mm 2 mps 714 mmHg 94%
    20:00 +6°C° 0.2 mm 2 mps 714 mmHg 94%
    21:00 +6°C° 0.2 mm 2 mps 714 mmHg 94%
    22:00 +6°C° 0.2 mm 2 mps 715 mmHg 94%
    23:00 +6°C° 0.2 mm 2 mps 715 mmHg 94%

    Tomorrow, 24 October, Tuesday

    Time Temperature Precipitation Wind Pressure Humidity
    00:00 +6°C° 0.2 mm 2 mps 715 mmHg 94%
    01:00 +6°C° 0.2 mm 2 mps 715 mmHg 93%
    02:00 +6°C° 0 mm 2 mps 715 mmHg 93%
    03:00 +6°C° 0 mm 2 mps 715 mmHg 92%
    04:00 +6°C° 0 mm 2 mps 715 mmHg 92%
    05:00 +6°C° 0.1 mm 2 mps 715 mmHg 92%
    06:00 +6°C° 0.1 mm 2 mps 715 mmHg 92%
    07:00 +6°C° 0.1 mm 2 mps 715 mmHg 93%
    08:00 +8°C° 0 mm 2 mps 715 mmHg 90%
    09:00 +10°C° 0 mm 1 mps 715 mmHg 88%
    10:00 +11°C° 0 mm 1 mps 715 mmHg 86%
    11:00 +12°C° 0 mm 1 mps 715 mmHg 83%
    12:00 +13°C° 0 mm 1 mps 715 mmHg 80%
    13:00 +14°C° 0 mm 1 mps 715 mmHg 77%
    14:00 +14°C° 0 mm 1 mps 715 mmHg 79%
    15:00 +14°C° 0 mm 1 mps 715 mmHg 81%
    16:00 +14°C° 0 mm 1 mps 715 mmHg 83%
    17:00 +13°C° 0 mm 1 mps 715 mmHg 86%
    18:00 +11°C° 0 mm 1 mps 715 mmHg 88%
    19:00 +9°C° 0 mm 2 mps 715 mmHg 91%
    20:00 +9°C° 0 mm 2 mps 715 mmHg 91%
    21:00 +8°C° 0 mm 2 mps 715 mmHg 91%
    22:00 +8°C° 0 mm 2 mps 716 mmHg 92%
    23:00 +8°C° 0 mm 2 mps 715 mmHg 91%

    Day after tomorrow, 25 October, Wednesday

    Time Temperature Precipitation Wind Pressure Humidity
    00:00 +9°C° 0 mm 1 mps 715 mmHg 90%
    01:00 +9°C° 0 mm 1 mps 715 mmHg 89%
    02:00 +9°C° 0 mm 1 mps 715 mmHg 88%
    03:00 +9°C° 0 mm 1 mps 715 mmHg 88%
    04:00 +9°C° 0 mm 1 mps 714 mmHg 88%
    05:00 +9°C° 0 mm 1 mps 715 mmHg 87%
    06:00 +9°C° 0 mm 1 mps 715 mmHg 87%
    07:00 +8°C° 0 mm 1 mps 715 mmHg 87%
    08:00 +10°C° 0 mm 1 mps 715 mmHg 84%
    09:00 +12°C° 0 mm 1 mps 715 mmHg 80%
    10:00 +14°C° 0 mm 1 mps 715 mmHg 77%
    11:00 +15°C° 0 mm 1 mps 715 mmHg 74%
    12:00 +18°C° 0 mm 1 mps 715 mmHg 71%
    13:00 +19°C° 0 mm 1 mps 715 mmHg 68%
    14:00 +17°C° 0 mm 0 mps 715 mmHg 72%
    15:00 +16°C° 0 mm 0 mps 715 mmHg 75%
    16:00 +16°C° 0 mm 0 mps 715 mmHg 78%
    17:00 +15°C° 0 mm 1 mps 715 mmHg 80%
    18:00 +13°C° 0 mm 1 mps 715 mmHg 83%
    19:00 +12°C° 0 mm 1 mps 715 mmHg 85%
    20:00 +11°C° 0 mm 1 mps 715 mmHg 84%
    21:00 +11°C° 0 mm 1 mps 715 mmHg 83%
    22:00 +11°C° 0 mm 1 mps 716 mmHg 82%
    23:00 +11°C° 0 mm 1 mps 716 mmHg 81%

    26 October, Thursday

    Time Temperature Precipitation Wind Pressure Humidity
    00:00 +10°C° 0 mm 1 mps 716 mmHg 80%
    01:00 +10°C° 0 mm 1 mps 716 mmHg 79%
    02:00 +10°C° 0 mm 1 mps 715 mmHg 79%
    03:00 +9°C° 0 mm 2 mps 715 mmHg 78%
    04:00 +9°C° 0 mm 2 mps 715 mmHg 77%
    05:00 +9°C° 0 mm 2 mps 715 mmHg 77%
    06:00 +9°C° 0 mm 2 mps 715 mmHg 76%
    07:00 +8°C° 0 mm 2 mps 715 mmHg 75%
    08:00 +12°C° 0 mm 2 mps 715 mmHg 72%
    09:00 +14°C° 0 mm 1 mps 715 mmHg 69%
    10:00 +16°C° 0 mm 1 mps 716 mmHg 67%
    11:00 +18°C° 0 mm 1 mps 715 mmHg 64%
    12:00 +19°C° 0 mm 1 mps 715 mmHg 61%
    13:00 +21°C° 0 mm 1 mps 715 mmHg 58%
    14:00 +20°C° 0 mm 1 mps 715 mmHg 62%
    15:00 +19°C° 0 mm 1 mps 715 mmHg 67%
    16:00 +19°C° 0 mm 1 mps 715 mmHg 71%
    17:00 +16°C° 0 mm 1 mps 715 mmHg 73%
    18:00 +14°C° 0 mm 2 mps 715 mmHg 75%
    19:00 +13°C° 0 mm 2 mps 714 mmHg 76%
    20:00 +12°C° 0 mm 2 mps 714 mmHg 76%
    21:00 +12°C° 0 mm 2 mps 714 mmHg 75%
    22:00 +12°C° 0 mm 2 mps 714 mmHg 74%
    23:00 +12°C° 0 mm 2 mps 714 mmHg 74%

    27 October, Friday

    Time Temperature Precipitation Wind Pressure Humidity
    00:00 +10°C° 0 mm 2 mps 714 mmHg 73%
    01:00 +10°C° 0 mm 2 mps 714 mmHg 73%
    02:00 +10°C° 0 mm 2 mps 713 mmHg 73%
    03:00 +10°C° 0 mm 2 mps 713 mmHg 73%
    04:00 +10°C° 0 mm 2 mps 713 mmHg 72%
    05:00 +10°C° 0 mm 2 mps 712 mmHg 74%
    06:00 +10°C° 0 mm 3 mps 712 mmHg 75%
    07:00 +9°C° 0 mm 3 mps 712 mmHg 77%
    08:00 +11°C° 0 mm 3 mps 712 mmHg 75%
    09:00 +12°C° 0 mm 3 mps 712 mmHg 73%
    10:00 +14°C° 0 mm 3 mps 712 mmHg 72%
    11:00 +14°C° 0.1 mm 3 mps 712 mmHg 74%
    12:00 +14°C° 0.1 mm 3 mps 711 mmHg 76%
    13:00 +13°C° 0.1 mm 3 mps 711 mmHg 78%
    14:00 +13°C° 0.7 mm 3 mps 711 mmHg 83%
    15:00 +12°C° 0.7 mm 3 mps 711 mmHg 87%
    16:00 +11°C° 0.7 mm 3 mps 711 mmHg 91%
    17:00 +11°C° 0.6 mm 3 mps 712 mmHg 92%
    18:00 +10°C° 0.6 mm 2 mps 712 mmHg 94%
    19:00 +9°C° 0.6 mm 2 mps 713 mmHg 95%
    20:00 +9°C° 0.2 mm 1 mps 713 mmHg 96%
    21:00 +9°C° 0.2 mm 1 mps 713 mmHg 96%
    22:00 +8°C° 0.2 mm 1 mps 714 mmHg 96%
    23:00 +8°C° 0 mm 1 mps 714 mmHg 96%

    28 October, Saturday

    Time Temperature Precipitation Wind Pressure Humidity
    00:00 +8°C° 0 mm 1 mps 713 mmHg 96%
    01:00 +8°C° 0 mm 1 mps 713 mmHg 96%
    02:00 +7°C° 0 mm 1 mps 713 mmHg 96%
    03:00 +6°C° 0 mm 2 mps 712 mmHg 96%
    04:00 +6°C° 0 mm 2 mps 712 mmHg 96%
    05:00 +5°C° 0 mm 3 mps 712 mmHg 94%
    06:00 +5°C° 0 mm 3 mps 711 mmHg 92%
    07:00 +5°C° 0 mm 3 mps 711 mmHg 90%
    08:00 +6°C° 0 mm 4 mps 711 mmHg 85%
    09:00 +7°C° 0 mm 4 mps 711 mmHg 80%
    10:00 +8°C° 0 mm 5 mps 711 mmHg 75%
    11:00 +9°C° 0 mm 5 mps 710 mmHg 68%
    12:00 +10°C° 0 mm 5 mps 710 mmHg 61%
    13:00 +11°C° 0 mm 6 mps 709 mmHg 54%
    14:00 +12°C° 0 mm 5 mps 709 mmHg 55%
    15:00 +12°C° 0 mm 5 mps 709 mmHg 55%
    16:00 +11°C° 0 mm 4 mps 708 mmHg 56%
    17:00 +10°C° 0 mm 4 mps 708 mmHg 57%
    18:00 +8°C° 0 mm 5 mps 708 mmHg 58%
    19:00 +7°C° 0 mm 5 mps 708 mmHg 59%
    20:00 +7°C° 0 mm 5 mps 708 mmHg 60%
    21:00 +7°C° 0 mm 5 mps 708 mmHg 61%
    22:00 +8°C° 0 mm 5 mps 708 mmHg 62%
    23:00 +8°C° 0 mm 5 mps 707 mmHg 64%
    Show more